Wind_Speed
21 20 20 20 20 19 19 18 19 19 19 19 19 19 19 20 21 23 25 26 26 26 26 24 22 24 27 23 17 17 20 21 22 22 21 21 21 23 23 21 21 22 22 23 24 24 24 23 23 25 26 26 25 26 26 26 27 27 26 26 24 23 24 26 29 30 29 27 25 24 26 28 27 26 25 25 24 23 21 19 19 18 18 17 17
23 21 20 19 20 20 20 19 18 18 18 20 20 18 17 16 15 15 18 23 24 23 21 18 19 23 24 19 15 18 20 21 22 22 21 22 22 23 23 22 23 23 23 23 23 24 24 24 25 27 28 27 25 26 26 25 25 24 23 22 21 20 21 23 25 28 29 29 28 26 26 29 29 28 27 27 27 27 26 24 23 22 21 21 20
26 23 19 18 19 20 19 17 16 17 17 17 19 18 17 16 15 14 15 17 18 17 16 16 19 21 18 14 15 19 20 21 22 21 22 23 23 24 24 24 24 23 23 23 23 23 24 26 27 27 27 26 24 25 24 24 24 24 22 21 19 19 19 20 22 25 27 28 29 29 28 29 29 29 29 28 28 28 27 26 26 26 25 24 24
27 25 20 19 18 18 18 17 16 17 17 16 16 15 14 14 14 15 16 15 15 16 16 17 18 17 15 15 18 20 20 21 21 21 22 23 24 24 24 24 24 24 24 24 24 25 26 28 28 28 27 25 24 23 23 22 23 23 23 22 22 22 23 23 22 24 25 26 27 28 28 29 29 28 28 27 27 28 28 28 28 28 28 28 27
29 28 25 24 23 19 18 18 17 17 18 17 15 14 12 11 11 12 12 13 14 16 17 18 18 18 19 20 20 21 21 22 22 23 23 23 23 23 24 25 25 26 26 25 25 26 27 27 27 28 27 25 24 23 22 22 22 23 23 24 24 25 25 25 25 26 27 28 27 26 26 27 28 28 28 28 28 30 31 31 31 29 29 29 29
29 28 26 27 28 24 21 20 19 19 19 18 16 16 16 15 14 14 14 15 16 17 18 19 20 20 21 21 22 22 23 23 24 24 24 24 24 24 25 26 26 27 26 25 25 26 26 25 25 26 26 25 24 24 24 23 22 22 23 23 24 24 25 25 26 26 27 28 28 27 26 27 27 28 30 31 32 33 33 33 33 32 32 32 32
24 22 22 24 26 24 21 20 20 21 22 22 21 20 19 18 17 17 17 18 19 20 21 22 23 23 24 24 24 24 25 25 24 24 24 25 25 26 26 25 25 25 24 23 23 23 23 23 23 23 23 23 24 24 24 23 22 22 22 22 22 23 23 24 25 25 25 25 26 26 27 27 26 27 30 32 33 34 35 36 36 34 35 37 37
18 17 17 19 19 18 18 18 18 18 20 21 21 21 20 19 18 18 19 20 20 22 23 24 26 26 27 27 27 27 27 27 26 26 26 25 25 25 25 23 23 22 21 21 21 21 21 20 20 20 21 21 22 22 22 22 21 21 21 21 21 21 22 23 24 23 23 23 24 25 27 27 27 28 30 32 32 33 35 38 39 37 37 39 39
16 15 14 15 15 16 16 16 15 15 15 16 16 17 17 16 16 18 21 22 22 23 23 24 26 27 28 29 29 29 29 29 29 28 27 26 25 24 23 22 22 21 21 21 21 21 20 20 20 20 20 21 21 21 21 20 20 20 20 20 21 22 22 23 24 25 25 25 25 25 26 26 26 29 30 31 33 34 35 38 38 37 39 40 39
15 14 14 14 14 14 15 14 13 13 13 13 12 12 13 13 14 16 19 22 23 23 24 24 25 27 28 28 29 29 29 28 28 27 26 25 24 22 22 21 21 21 22 22 23 24 23 22 23 23 23 23 23 21 21 20 20 20 20 21 22 23 23 24 25 27 27 27 27 27 26 25 26 28 29 30 33 34 35 36 37 37 39 41 39
16 15 15 15 14 14 14 14 13 13 13 13 13 13 13 14 15 16 17 19 20 21 22 23 24 24 25 26 26 27 27 26 25 25 25 24 24 23 22 22 22 22 23 24 25 26 26 27 27 27 27 26 24 24 23 23 23 23 23 23 24 25 26 26 28 29 29 29 28 28 29 28 28 29 31 32 33 34 34 35 37 37 38 40 39
16 16 16 16 15 15 15 15 15 15 15 15 15 15 16 17 17 18 19 19 20 20 21 22 23 24 25 26 26 27 27 27 26 26 25 25 25 25 25 25 25 26 26 27 27 28 28 29 30 30 29 28 28 28 28 27 27 27 27 27 28 29 30 30 30 31 31 31 30 30 31 32 31 32 33 35 36 36 36 36 37 39 40 40 40
16 17 17 17 16 16 17 17 17 17 17 17 17 18 19 19 19 20 21 22 22 23 24 24 25 27 28 28 28 28 28 28 28 28 27 27 27 27 27 28 28 29 30 30 30 30 30 31 32 32 31 31 31 31 31 31 31 30 30 30 31 32 33 33 34 34 34 34 34 34 35 36 35 34 36 38 39 39 40 40 40 41 42 42 42
14 16 17 17 17 17 18 18 18 18 18 19 19 20 21 21 21 22 23 23 24 25 26 26 27 28 29 29 29 29 29 29 29 28 28 28 28 28 28 29 30 31 31 32 32 32 32 33 34 34 33 33 33 33 34 33 33 32 31 31 32 32 33 34 35 35 35 36 36 35 36 37 37 36 37 40 41 41 42 43 42 42 43 44 45
13 13 14 15 15 16 17 17 17 18 18 19 20 20 21 22 22 23 24 24 25 25 25 26 27 28 29 29 29 28 29 28 27 27 26 27 27 28 28 28 29 30 31 32 32 33 33 33 34 34 34 35 35 35 36 35 35 34 33 32 32 32 33 34 35 36 36 36 37 36 36 37 38 38 38 40 42 43 44 45 45 45 47 47 47
13 12 13 13 13 14 14 14 15 16 17 18 19 19 20 21 22 22 22 22 22 23 23 24 25 26 27 27 27 26 26 25 25 25 25 25 26 26 26 27 27 28 29 31 32 32 32 32 33 33 34 35 35 36 36 36 36 36 35 35 34 34 34 35 35 36 36 37 38 38 38 39 40 40 41 41 43 45 45 46 46 47 49 51 50
13 13 12 12 12 12 13 13 14 15 16 16 17 18 18 18 19 19 19 19 19 19 20 21 22 23 24 24 24 23 23 23 23 24 24 24 24 24 24 25 25 27 28 29 31 31 31 31 31 32 32 33 34 34 35 35 35 35 35 35 35 34 34 35 35 36 37 38 39 40 40 41 41 42 43 43 44 46 47 48 48 48 51 52 52
13 13 13 12 11 11 12 12 13 14 14 15 15 16 16 16 16 16 16 16 17 17 18 19 20 20 21 22 22 22 22 22 22 23 23 23 23 23 23 23 23 25 26 27 29 30 29 29 29 30 30 31 31 31 31 32 32 32 32 33 33 33 33 33 34 34 35 37 38 39 40 40 41 41 42 43 44 45 47 47 47 48 49 51 52
12 12 11 11 11 11 11 11 12 13 13 13 14 14 14 14 13 12 12 13 13 14 15 15 16 16 17 19 19 20 20 20 20 21 21 21 20 20 20 20 20 20 21 23 24 25 25 26 26 27 27 28 28 28 28 28 28 28 29 29 30 31 31 32 32 32 33 34 35 36 37 38 39 39 40 41 41 42 44 45 46 46 47 48 50
12 11 10 10 11 11 10 10 11 11 10 10 11 10 10 9 8 8 8 8 8 9 9 9 9 10 11 13 14 15 15 16 16 17 17 16 15 15 15 16 16 16 16 17 17 18 19 20 21 22 23 24 25 25 25 25 26 26 27 27 27 27 28 29 30 30 31 31 32 33 34 35 36 38 38 39 39 40 42 43 44 45 46 47 48
12 11 11 11 10 10 9 9 9 8 8 7 7 7 6 6 5 5 4 4 4 3 3 3 4 4 5 6 7 8 9 10 10 11 11 11 11 11 11 12 12 12 12 12 12 12 13 14 15 16 18 19 21 22 22 23 24 24 25 25 25 25 25 26 27 28 29 29 30 32 33 34 35 37 38 38 39 40 41 43 44 45 46 48 48
13 12 12 11 9 8 8 7 7 7 7 7 7 6 6 5 4 4 3 2 2 1 1 1 2 2 3 3 4 5 5 6 7 7 8 8 8 8 9 9 10 10 9 9 9 10 10 11 12 13 14 15 17 18 20 21 22 23 24 24 25 26 26 27 28 29 29 30 31 32 34 35 36 36 37 38 38 39 40 40 41 43 44 45 46
12 12 11 10 9 8 7 7 7 7 7 7 7 6 5 4 3 3 2 2 2 3 3 2 3 3 3 4 4 4 5 5 5 5 6 6 6 6 6 7 7 8 8 8 8 9 10 11 12 13 14 15 16 18 19 21 22 23 23 24 25 26 26 27 27 27 27 28 28 29 29 30 31 31 31 32 32 33 33 34 35 37 38 39 40
11 11 10 10 9 8 8 8 7 7 7 6 5 4 4 4 3 3 3 3 3 3 3 3 3 4 4 5 5 5 5 5 5 5 5 5 5 5 5 5 6 6 6 6 7 8 9 10 11 12 13 14 15 16 17 18 19 20 21 22 22 22 23 24 24 24 24 25 25 26 27 27 28 28 28 28 29 29 30 30 31 33 34 36 37
10 10 10 10 9 9 9 9 8 7 6 5 4 4 4 3 3 3 3 4 4 4 4 3 3 4 4 5 5 5 5 6 6 6 6 6 6 6 5 6 6 6 6 7 7 7 8 9 10 11 12 13 14 15 16 17 18 19 20 21 21 22 23 23 24 24 24 25 25 26 26 27 27 28 28 28 28 29 29 28 28 29 31 32 33
10 10 10 11 11 10 10 10 8 7 7 6 5 5 5 4 4 5 5 5 5 5 5 4 4 4 4 4 5 5 6 6 6 6 7 7 7 7 7 7 8 8 9 9 9 10 10 11 12 12 13 14 15 16 17 18 19 20 21 22 22 23 24 24 24 24 24 25 25 25 25 26 26 27 28 28 28 29 29 29 29 29 30 31 31
10 10 11 11 12 12 12 11 10 9 8 8 7 6 6 6 6 6 6 6 6 6 6 6 5 5 5 5 6 6 7 7 7 8 8 9 9 9 9 10 10 10 11 11 11 12 12 13 14 14 15 15 16 17 18 18 19 20 21 22 23 23 24 24 25 25 25 25 26 26 26 26 27 27 28 29 30 31 31 32 32 32 32 32 32
11 11 11 11 12 12 12 11 11 10 10 9 8 8 7 7 7 7 6 6 6 6 6 6 6 6 6 7 7 8 8 9 9 9 10 11 11 11 11 12 12 12 12 13 13 13 13 14 14 15 15 15 16 17 18 19 20 21 21 22 23 24 24 25 25 26 27 27 27 27 27 28 28 29 29 29 30 32 33 33 34 34 34 35 35
12 11 11 11 11 11 11 11 10 10 10 9 9 9 8 8 7 7 7 6 6 6 6 6 6 6 6 7 7 7 8 8 8 9 9 10 11 11 11 12 12 13 13 14 14 14 14 15 15 15 15 16 16 17 18 19 20 21 22 22 23 24 25 25 25 26 27 28 29 29 29 29 30 30 30 30 31 32 33 34 35 35 35 36 36
12 11 11 11 11 11 11 11 10 10 10 9 9 8 8 7 7 6 6 6 6 6 6 6 6 6 5 5 5 6 6 7 7 8 8 8 9 10 11 11 12 13 13 14 15 15 16 16 17 17 17 18 18 19 19 20 21 22 22 23 24 24 25 26 26 27 28 29 30 31 31 31 31 32 32 33 33 33 34 35 37 37 38 38 39
12 12 11 11 11 11 11 11 10 10 10 9 9 8 8 7 7 6 6 6 6 6 6 6 5 5 4 4 5 5 6 7 7 8 8 9 9 10 11 12 13 14 15 15 16 17 17 18 19 19 20 20 21 21 22 22 22 22 23 24 25 25 26 26 27 28 28 29 30 31 32 33 34 35 36 36 37 37 37 38 39 39 40 41 41
13 12 12 12 12 11 11 11 11 10 10 9 9 9 8 7 7 6 6 6 6 6 6 6 5 4 4 5 6 7 7 8 8 9 10 11 12 13 14 15 15 16 17 18 18 19 19 19 19 20 20 21 21 21 22 22 22 22 23 24 25 26 26 27 27 28 29 30 31 33 34 35 36 36 37 38 39 39 40 40 40 41 41 42 42
14 13 13 13 12 12 12 12 11 11 10 9 9 9 8 8 7 6 6 6 7 7 6 6 5 5 6 7 8 9 9 10 10 11 12 13 15 16 17 17 18 19 19 19 19 19 19 19 19 19 19 20 20 20 21 21 22 23 24 25 26 27 27 28 29 30 31 32 33 34 35 36 37 37 38 39 40 41 41 42 42 43 43 44 44
14 14 14 14 13 13 12 12 11 11 10 10 9 9 9 8 7 7 7 8 7 7 6 6 6 7 8 10 10 11 11 11 12 13 14 15 15 16 16 17 19 19 19 19 18 18 18 19 19 19 20 21 22 22 23 23 24 25 25 26 27 28 28 29 30 31 32 33 34 35 36 37 38 38 39 40 40 41 42 43 43 44 45 45 46
12 12 12 12 12 12 11 11 11 11 11 11 10 10 10 9 9 9 9 9 8 7 6 7 8 10 11 11 11 11 11 12 13 14 15 15 15 16 16 16 17 18 19 20 19 19 19 19 20 21 22 23 24 25 25 25 26 26 27 27 28 28 29 30 30 31 32 34 35 36 36 37 38 39 40 41 41 42 43 43 44 45 45 47 47
10 10 10 10 11 11 10 11 11 12 12 12 11 11 11 11 11 11 10 10 9 8 8 10 11 12 12 12 11 11 11 11 12 13 14 14 15 15 16 16 16 16 17 18 18 19 19 20 20 21 23 24 25 26 27 27 27 26 27 28 29 29 30 30 31 32 32 33 35 35 36 37 38 40 41 41 42 44 44 45 45 46 46 47 48
9 9 10 10 11 11 11 11 12 13 13 12 11 12 12 12 11 11 11 10 9 9 11 13 14 14 13 12 11 11 10 10 11 11 13 14 15 15 15 15 15 15 15 16 16 17 18 19 20 22 23 24 25 26 27 27 27 26 26 27 28 29 30 31 32 32 33 34 34 35 36 38 39 40 41 42 43 43 44 45 45 46 46 46 47
10 10 10 11 11 10 10 11 13 13 13 12 12 12 12 12 12 11 10 10 10 12 14 15 14 14 13 13 12 12 11 11 11 12 13 14 15 15 16 16 15 15 15 16 17 17 18 20 21 22 23 23 24 25 25 26 26 26 27 27 27 28 30 31 32 33 34 34 35 35 36 37 37 38 40 41 42 43 43 43 44 45 45 45 46
11 11 11 11 11 10 9 10 12 13 13 13 13 12 12 12 12 11 10 11 12 14 14 14 14 14 14 15 15 14 13 12 12 13 14 15 16 17 17 18 18 18 18 18 18 19 19 19 20 21 22 22 23 23 25 26 27 27 28 28 27 28 29 31 32 33 34 34 35 35 36 36 37 37 38 40 41 43 43 43 43 44 45 45 45
13 12 12 12 11 10 9 10 12 13 13 13 13 13 13 12 12 11 12 13 14 14 14 14 14 15 15 16 16 15 14 14 14 15 16 17 18 19 20 21 21 22 22 21 22 22 22 21 21 21 21 22 22 23 24 26 27 28 29 30 30 31 31 32 33 34 35 35 36 36 37 37 38 38 38 39 41 42 43 44 44 44 45 46 46
14 14 13 13 13 11 9 10 12 13 13 13 13 13 12 13 13 13 14 15 15 15 16 16 16 16 16 15 15 15 15 15 16 17 18 19 20 21 23 24 25 25 25 25 24 25 25 25 24 23 23 23 24 25 26 27 28 29 31 32 34 35 36 36 37 37 37 37 38 38 38 38 39 39 39 39 40 41 42 44 44 45 45 46 46
15 15 15 14 13 12 11 11 13 14 14 14 14 14 14 14 14 15 15 16 16 17 17 17 17 16 16 15 14 15 15 16 17 18 20 22 23 24 25 26 27 28 28 27 27 27 27 27 26 26 26 26 27 28 29 30 31 32 34 35 37 38 39 40 41 41 40 39 39 40 40 40 40 40 40 40 41 42 42 43 44 45 46 46 46
16 16 16 15 14 13 12 12 13 15 15 15 15 15 15 15 15 16 16 17 17 18 18 17 17 16 16 15 15 16 16 17 19 20 22 24 26 27 28 28 28 29 29 29 29 29 29 28 28 28 28 29 30 31 32 33 33 34 36 37 39 40 41 42 43 43 43 42 41 41 42 42 42 42 42 42 42 42 43 43 44 44 45 46 46
18 18 17 15 14 14 13 13 14 16 16 16 16 16 16 16 16 17 18 18 18 18 18 17 17 16 16 17 17 18 18 20 21 23 24 26 28 30 30 30 31 31 31 31 31 31 30 30 29 29 30 31 33 34 34 35 36 37 38 39 41 42 43 44 44 45 45 45 44 44 44 44 44 43 43 43 43 43 44 44 44 45 45 45 45
19 19 17 15 14 14 13 13 14 16 17 17 17 16 16 17 18 19 20 20 19 18 18 17 17 17 18 18 19 20 21 22 24 25 27 29 31 32 33 33 33 32 32 31 31 31 30 30 30 31 32 33 34 35 36 37 38 39 40 41 42 43 44 44 45 45 46 46 47 47 46 46 46 45 45 45 44 44 44 44 45 45 45 45 45
19 19 17 15 14 13 13 14 15 16 17 17 16 17 18 19 20 21 21 21 19 18 17 17 18 18 19 20 21 22 23 25 27 28 30 32 33 35 35 35 34 33 32 31 30 29 29 30 31 32 34 35 36 37 38 39 40 41 41 42 43 44 44 45 45 46 46 47 47 47 47 47 47 46 46 46 45 45 45 45 45 46 46 46 45
17 17 16 14 14 13 13 14 15 16 16 17 17 18 18 19 19 20 21 21 20 18 18 18 19 20 21 22 23 25 26 28 29 31 32 34 35 36 36 35 34 32 31 30 29 29 29 31 33 34 35 37 38 38 39 40 41 42 43 43 44 44 44 45 45 46 46 47 47 47 48 48 48 47 47 47 46 46 46 46 45 45 46 46 45
16 15 14 13 13 13 13 15 16 17 18 18 19 19 18 18 19 21 22 22 21 19 19 20 21 22 23 24 25 27 28 30 31 33 34 35 36 37 36 34 32 31 30 30 29 30 31 32 34 35 36 37 39 39 40 41 42 43 43 44 44 44 44 45 45 46 46 46 47 48 48 48 48 48 47 47 47 46 46 46 46 46 46 46 45
14 14 13 13 12 13 15 16 18 18 18 19 19 19 19 20 21 22 23 23 22 21 21 22 23 23 24 25 27 29 30 31 33 34 35 37 37 36 35 33 32 31 30 30 31 32 33 34 35 36 37 38 39 40 41 42 43 43 43 43 44 44 45 45 46 46 46 47 47 48 48 48 48 47 47 47 47 47 46 46 46 46 46 46 45
11 12 12 13 14 15 17 18 19 19 19 19 20 20 20 21 22 22 22 22 22 23 24 24 24 25 26 28 29 30 32 33 34 35 36 37 36 35 33 32 31 31 31 31 32 33 34 35 36 37 38 39 40 41 42 42 42 43 43 44 44 45 45 46 46 46 46 47 47 47 47 47 46 46 46 46 46 46 46 46 46 46 46 46 46
12 13 14 15 17 18 19 20 20 20 20 20 21 22 22 23 22 22 22 23 24 25 25 25 26 27 28 30 31 32 34 35 36 36 36 36 35 34 33 32 32 32 33 34 34 35 35 36 37 38 39 40 41 41 42 42 42 43 44 44 45 45 45 46 46 45 45 45 45 45 45 45 45 45 45 45 46 46 46 46 46 46 45 45 45
Wind_Direction
223 224 222 217 217 210 199 204 208 194 180 176 175 176 180 184 191 196 197 196 198 198 197 198 201 210 219 216 214 230 242 249 256 261 265 262 248 237 238 244 249 253 255 257 262 267 268 268 266 268 270 273 276 278 281 283 284 284 282 278 270 265 263 266 272 275 273 272 269 264 265 271 275 276 274 272 271 271 268 268 271 271 268 264 260
224 225 221 214 215 219 214 210 210 201 183 173 171 171 167 166 171 179 182 183 186 191 194 201 214 224 226 218 219 237 244 249 255 258 258 256 249 242 242 245 248 250 253 258 264 267 270 272 272 273 274 276 281 284 283 282 282 280 277 272 266 261 261 263 267 271 273 273 271 269 269 272 275 275 272 271 271 271 270 269 267 265 264 262 260
224 227 223 214 214 216 213 210 208 203 193 180 174 172 167 165 166 169 169 168 174 185 196 212 227 233 232 226 230 238 243 248 253 255 255 253 250 248 247 247 248 252 258 265 268 269 272 275 276 276 276 279 283 283 281 278 278 278 273 270 268 266 267 267 266 270 272 272 272 272 271 270 274 276 272 269 268 270 271 270 267 265 263 262 262
223 228 227 225 226 220 215 219 215 205 200 194 185 183 183 183 184 185 181 174 180 194 205 217 229 237 238 238 240 244 250 255 258 259 259 255 251 249 249 250 253 259 265 270 273 271 271 271 272 273 275 278 280 280 279 279 278 277 273 270 270 272 274 276 276 276 275 273 272 273 273 270 270 271 270 269 269 270 270 270 268 265 263 263 264
224 228 229 230 231 227 223 227 223 213 212 209 200 197 202 207 213 215 207 200 202 208 214 221 229 235 238 241 246 251 256 260 262 262 261 259 256 253 254 257 261 264 266 268 269 269 269 269 270 270 271 273 276 277 280 280 277 274 270 269 270 274 278 281 282 282 280 277 274 272 274 274 271 269 268 267 268 269 269 270 270 267 264 264 264
231 234 238 240 240 241 241 240 234 228 229 228 218 211 211 211 215 226 229 225 224 225 226 228 230 232 234 239 245 249 252 255 257 257 257 256 255 254 256 261 264 265 265 262 262 263 266 268 268 267 268 271 274 277 278 277 275 271 267 265 268 274 279 282 283 283 282 279 275 270 269 270 271 271 269 266 264 265 266 267 269 270 269 267 265
240 244 247 249 249 250 249 246 241 235 234 236 233 228 225 219 214 221 229 232 233 234 233 233 233 233 235 238 242 246 247 249 251 252 252 252 254 255 257 258 259 260 261 261 263 265 268 269 269 270 272 274 275 276 275 273 271 269 266 265 267 271 275 278 280 281 281 279 276 272 269 268 269 270 268 265 263 262 263 264 266 268 270 269 267
241 243 244 246 247 245 241 239 236 235 235 236 237 236 235 232 227 228 232 233 235 236 236 237 237 237 238 239 243 246 247 248 250 251 252 254 258 261 262 261 261 260 260 262 265 268 270 272 274 274 274 275 273 271 269 268 268 268 268 268 268 269 271 274 276 278 278 276 274 272 271 270 268 266 265 263 261 260 262 264 266 267 268 267 267
230 232 232 236 236 233 232 231 230 233 234 232 234 235 234 233 231 231 232 233 236 237 239 240 242 242 242 243 246 249 249 250 251 252 254 258 262 264 265 268 270 270 270 270 270 271 271 271 272 272 270 268 265 264 264 266 268 268 268 268 267 268 268 271 273 273 273 273 271 269 270 271 270 267 264 263 262 262 262 265 267 268 268 268 267
221 222 220 222 224 224 226 225 223 226 228 225 225 227 228 227 225 225 228 231 233 234 235 238 240 241 243 244 246 248 250 251 253 255 258 261 264 265 267 270 271 272 272 271 271 270 269 268 267 265 264 263 263 265 266 266 265 265 266 267 267 267 267 268 269 270 271 271 271 271 272 272 270 267 264 262 262 263 264 266 268 268 269 269 268
212 216 217 217 217 218 222 221 218 221 225 223 221 221 224 226 225 224 226 228 231 233 234 236 239 242 245 247 250 252 254 256 257 259 261 263 264 265 266 266 265 266 266 266 267 267 267 268 268 266 265 266 267 268 266 264 263 263 262 262 263 265 265 266 267 270 272 272 273 273 273 272 269 267 267 266 266 268 268 269 271 271 270 270 269
207 211 216 218 217 218 222 223 221 220 223 225 226 227 228 230 232 234 236 237 239 241 244 247 250 253 255 256 257 259 261 262 263 263 263 263 263 263 263 262 261 261 261 261 262 263 265 266 267 268 268 269 268 267 266 264 263 263 262 263 263 265 267 267 269 271 273 274 273 272 272 271 269 268 269 270 271 272 272 271 272 272 271 271 271
209 211 217 219 221 223 225 228 227 225 226 227 230 234 236 239 242 244 246 248 249 250 253 255 257 258 259 259 260 260 261 262 263 263 263 263 263 263 262 262 262 262 262 262 262 263 263 265 266 268 269 270 270 270 269 268 267 267 268 268 270 271 273 273 274 274 274 273 272 271 271 271 271 271 272 274 274 273 274 273 273 273 273 274 274
213 216 220 221 224 227 228 231 233 233 233 233 234 238 240 243 245 246 248 250 252 254 256 257 258 259 259 259 259 259 260 261 261 262 263 263 263 262 261 260 260 261 262 263 264 264 264 265 266 267 269 270 271 271 272 272 272 272 272 272 272 272 272 273 274 273 273 273 273 273 274 274 274 273 274 275 276 276 276 276 276 276 277 276 276
212 216 221 222 225 229 231 234 236 237 239 239 240 242 243 246 247 248 249 250 251 252 254 255 256 257 258 259 259 260 261 262 263 264 263 263 263 262 262 262 262 262 262 263 264 266 266 266 267 268 269 269 269 270 270 271 272 272 272 272 271 270 269 269 270 271 273 274 275 275 275 275 275 275 274 275 276 277 277 277 278 278 278 278 278
210 212 216 219 221 226 229 232 234 236 239 240 241 242 242 244 245 246 248 248 249 249 250 252 254 255 258 261 262 263 264 265 266 265 264 263 262 262 263 264 264 265 265 265 266 266 267 267 267 268 268 268 268 268 269 269 270 271 271 272 271 271 270 270 270 271 272 273 275 275 275 275 275 276 276 275 276 277 277 278 279 279 279 279 279
208 209 211 212 216 221 225 227 229 231 233 234 236 237 237 238 238 239 240 241 242 243 243 245 248 251 255 259 262 264 266 266 266 266 266 265 264 264 264 263 264 264 264 265 266 267 268 268 268 268 268 268 268 268 269 269 270 270 271 272 273 272 272 272 271 271 271 272 273 274 274 275 276 276 276 276 276 276 276 277 277 277 278 279 279
208 210 209 208 213 219 223 226 230 232 232 233 236 237 237 238 237 237 237 238 239 240 241 242 246 249 254 258 262 264 265 266 268 269 269 270 270 271 271 269 267 266 265 265 266 267 268 268 269 270 269 270 270 270 271 272 271 271 271 270 271 270 270 270 270 270 271 272 272 273 274 275 276 277 278 278 279 279 280 280 281 280 281 282 282
214 216 215 214 220 225 226 229 234 238 237 236 239 240 241 243 243 242 242 241 242 243 244 246 247 250 254 257 260 262 264 265 267 269 271 274 276 278 278 277 276 274 273 271 270 269 268 268 268 269 270 271 272 273 274 275 275 275 273 272 271 270 270 270 269 268 268 269 271 272 274 275 276 277 278 279 280 281 282 283 283 283 283 284 285
223 227 230 232 233 233 231 229 232 236 236 235 236 236 235 236 237 237 236 235 236 240 243 245 246 248 251 254 257 261 263 265 268 270 274 278 281 284 284 285 285 284 282 280 278 275 273 270 268 268 270 272 274 276 277 278 278 278 278 277 276 275 274 273 272 271 270 270 271 271 272 273 275 276 277 278 279 280 281 282 283 283 284 284 284
226 233 237 238 236 232 225 218 218 219 219 217 216 214 209 208 209 210 212 213 218 226 234 242 248 252 256 260 264 267 270 272 275 279 283 286 289 290 290 291 292 293 294 293 291 287 283 279 276 274 275 276 278 280 281 282 282 282 283 283 283 282 281 280 279 278 277 276 275 275 274 275 274 275 275 276 276 277 278 279 280 282 283 284 284
222 225 227 226 222 216 210 205 201 199 194 190 187 184 180 179 181 186 191 202 230 260 286 302 303 297 291 294 296 294 294 293 292 294 296 297 297 295 292 293 295 298 301 302 301 299 296 292 290 287 285 284 284 285 286 287 287 287 288 288 287 287 286 285 284 283 282 281 280 279 279 279 278 278 278 277 277 277 277 278 279 281 282 284 285
210 208 207 206 205 201 198 195 191 185 180 177 175 174 174 177 184 192 208 239 261 280 295 303 305 303 302 304 307 306 308 310 310 313 313 313 311 308 305 305 305 306 307 305 303 301 298 295 294 291 290 290 289 288 289 288 289 289 289 289 289 289 289 289 288 288 287 287 287 286 286 285 284 284 284 285 285 285 284 284 284 284 284 285 286
191 190 190 190 191 191 190 189 187 183 180 180 181 185 194 203 213 223 236 252 262 271 281 286 288 286 286 288 289 291 295 300 303 309 314 316 315 315 315 316 313 312 311 309 308 306 302 300 298 295 294 293 291 290 290 290 291 291 292 292 292 292 292 293 293 293 292 292 292 292 293 293 293 294 294 294 294 294 292 291 288 286 284 283 282
183 183 182 181 184 187 187 187 188 189 193 197 201 215 230 240 251 257 260 265 267 270 274 273 272 275 276 278 278 277 278 280 282 288 293 293 294 294 295 295 293 292 291 291 294 297 296 297 296 295 295 294 293 294 293 293 293 294 294 295 296 297 297 297 297 297 297 297 297 296 296 296 296 296 296 295 294 294 293 292 290 289 287 286 285
185 184 182 182 184 186 187 189 191 197 208 215 219 232 244 253 263 270 274 276 278 280 283 282 282 282 282 282 280 278 277 276 277 281 284 285 288 290 290 290 290 289 289 289 289 290 290 291 292 292 294 294 294 294 294 295 296 296 297 297 297 297 297 296 296 295 295 294 294 294 294 295 295 296 296 297 296 296 295 294 293 293 292 290 290
190 190 188 188 190 190 191 193 196 201 212 219 223 232 243 250 259 266 271 277 282 287 292 294 295 294 291 290 289 288 288 290 292 296 300 303 306 307 307 306 304 301 300 298 297 296 295 294 293 293 292 291 291 291 293 295 295 295 295 294 294 294 294 294 294 295 295 295 296 298 299 300 300 301 301 302 302 301 301 300 299 298 297 296 295
194 197 197 197 198 198 199 201 202 206 213 218 223 229 234 239 247 253 258 264 271 277 283 287 289 290 290 291 293 295 298 302 306 309 312 313 313 314 314 313 311 310 308 306 304 301 298 296 294 293 293 293 294 295 296 296 295 294 294 294 295 296 297 298 300 300 301 302 303 304 304 304 304 304 304 304 304 303 303 303 303 302 302 301 300
198 201 204 207 209 208 208 211 212 214 219 223 225 228 229 231 234 238 243 248 252 258 263 267 271 275 277 281 285 290 295 300 303 307 308 310 311 312 312 312 311 309 307 304 301 299 297 296 295 294 294 294 294 294 293 293 293 293 294 294 295 297 298 299 300 301 302 303 303 303 303 303 303 303 303 304 304 304 304 304 304 304 304 303 303
201 203 209 216 219 218 219 222 222 223 227 229 230 231 231 231 231 233 236 239 243 248 251 252 254 255 259 265 273 281 289 294 297 300 301 303 305 305 306 307 305 304 303 302 301 301 300 299 298 296 295 293 292 291 290 290 290 291 292 293 294 295 297 298 298 299 300 300 301 301 302 303 304 305 305 306 306 306 306 306 306 307 307 307 307
208 207 211 217 223 225 226 228 229 230 231 232 234 236 236 235 234 234 235 236 239 242 240 238 238 240 248 264 275 284 291 294 297 299 300 300 300 300 300 300 300 301 300 300 301 301 302 302 301 300 300 298 297 296 294 294 294 294 294 295 296 296 297 297 297 298 299 300 301 302 304 305 307 308 308 308 307 307 307 306 306 306 306 306 306
216 214 215 219 224 227 230 232 232 232 232 231 231 233 235 234 233 232 232 230 230 229 225 221 224 237 259 277 287 292 296 300 304 306 307 308 308 308 308 306 306 306 307 307 307 307 306 305 304 303 302 301 299 298 297 297 298 299 300 301 301 301 302 302 302 303 303 304 304 304 305 305 306 307 307 306 306 306 305 305 305 304 304 304 305
220 218 219 221 225 228 232 235 235 233 233 230 228 230 232 232 232 231 229 224 221 219 220 223 234 259 281 293 298 302 304 308 310 310 310 311 312 313 314 313 312 311 310 309 309 307 306 305 304 304 304 303 302 301 301 302 304 306 307 308 308 308 308 308 307 307 306 306 305 305 305 306 306 307 307 307 306 306 306 306 306 305 305 305 305
225 222 220 221 224 226 229 233 234 233 232 228 225 226 228 228 228 226 223 221 219 221 229 244 264 283 295 300 303 305 307 308 309 310 311 312 313 312 312 311 309 308 306 305 305 304 305 306 307 308 308 307 307 306 307 307 308 308 309 309 309 309 309 309 309 308 308 307 307 307 308 308 308 307 307 306 306 306 305 305 305 305 305 305 305
231 228 225 225 226 227 230 234 235 233 230 226 223 223 223 222 220 218 218 220 221 229 246 266 281 289 294 297 299 299 300 302 305 306 307 308 308 308 308 307 307 307 307 307 307 308 308 308 307 307 307 307 307 307 307 307 307 308 308 309 308 309 309 309 309 309 309 309 309 309 309 308 308 307 307 307 306 305 305 305 305 305 306 306 306
231 230 229 227 226 225 228 233 236 234 229 225 222 219 217 216 213 213 217 222 225 237 257 271 279 283 286 287 287 287 288 292 295 297 299 301 303 304 305 306 307 306 305 304 305 306 306 305 304 304 304 305 305 306 306 306 307 308 308 308 309 309 309 309 309 309 309 309 309 309 309 308 308 308 308 308 307 307 306 306 306 306 306 306 307
222 223 225 225 224 222 223 228 232 232 228 225 222 219 215 212 212 216 221 226 234 248 263 271 276 279 279 277 275 274 275 280 285 290 295 298 300 301 302 303 304 303 301 300 301 303 304 304 302 302 302 301 301 301 302 303 305 307 307 307 308 309 310 309 309 309 309 309 309 309 309 309 309 309 309 308 307 306 306 306 306 306 306 306 306
217 218 221 223 223 222 223 227 231 230 225 221 219 218 215 215 218 224 230 240 252 263 269 274 278 279 278 276 273 271 273 280 290 298 303 305 304 303 303 303 304 304 304 304 305 306 306 304 302 300 298 297 296 297 299 302 304 306 307 308 309 309 309 308 308 309 309 309 308 308 308 308 308 308 308 307 307 306 306 306 306 306 306 306 306
222 219 219 221 221 218 221 229 233 230 223 218 216 216 217 220 226 234 245 256 264 269 272 275 278 277 276 274 272 272 277 287 297 303 307 309 310 310 310 310 310 310 310 310 309 308 306 303 301 299 297 296 296 297 300 303 305 307 308 308 308 308 307 307 308 308 308 308 308 308 308 308 308 308 308 307 307 307 307 307 307 307 306 306 307
231 225 219 219 219 214 216 229 234 231 224 221 219 219 223 230 238 248 257 263 267 271 274 274 273 271 270 268 270 274 281 290 298 303 306 309 313 315 317 317 315 314 313 313 313 312 311 309 308 306 304 302 301 302 303 305 306 308 309 309 310 310 310 310 310 311 311 310 310 310 310 310 309 309 308 308 307 306 307 307 307 307 307 307 308
232 229 222 218 215 210 210 225 235 234 228 225 226 229 235 243 250 257 262 269 273 275 275 271 267 264 263 264 270 279 287 294 302 308 311 313 317 320 322 322 320 319 317 316 315 315 313 313 313 312 310 307 306 307 309 309 310 311 312 313 314 314 314 314 314 314 313 313 312 312 311 310 310 309 308 307 306 306 306 306 307 307 307 308 308
229 229 225 220 217 214 212 221 233 237 234 232 235 239 245 252 258 265 271 276 277 274 270 266 262 259 260 264 274 283 291 299 305 309 313 317 320 323 324 324 322 320 318 316 315 314 314 315 316 314 313 312 312 313 313 314 314 315 315 315 314 314 314 314 314 314 315 314 312 311 310 310 309 309 308 307 306 305 305 305 305 306 306 307 307
228 229 226 222 221 220 217 221 231 238 241 242 245 250 255 261 267 272 274 274 273 272 269 266 263 262 265 272 282 290 298 304 308 310 315 319 322 324 324 322 320 318 316 315 315 316 317 317 316 315 314 313 313 314 314 315 316 315 314 313 313 312 312 313 313 314 314 313 312 310 310 309 309 309 308 307 306 305 305 305 304 304 304 305 306
231 230 226 223 224 223 222 224 232 240 246 249 252 257 263 267 268 269 269 269 272 276 277 274 272 274 279 287 294 299 304 307 310 313 318 322 323 323 322 320 318 317 316 316 317 318 318 317 316 314 313 312 312 313 314 314 314 313 312 312 312 312 312 312 312 312 312 312 311 311 310 310 310 310 308 307 306 305 305 304 303 302 302 303 305
231 230 225 222 224 227 228 230 236 244 250 253 257 260 263 263 263 264 267 271 277 284 287 287 286 289 294 299 301 304 307 310 313 317 320 321 320 320 319 318 317 317 317 317 317 317 315 314 313 311 310 310 310 311 312 311 311 311 311 311 311 311 311 311 311 311 311 311 311 312 311 311 311 311 310 309 308 307 305 304 303 302 302 303 304
230 229 226 224 227 232 235 237 242 248 252 255 258 259 260 262 266 270 274 280 287 294 300 300 300 301 302 304 305 308 311 314 317 318 317 316 316 316 317 317 317 317 317 316 315 312 311 310 309 308 307 307 308 309 309 309 309 309 309 309 309 310 310 310 310 310 311 311 311 312 312 312 312 311 311 311 310 308 307 305 304 304 304 303 304
234 234 232 230 231 235 239 242 246 250 253 257 261 264 268 273 277 280 284 291 297 301 304 305 305 305 305 307 310 312 314 315 314 313 311 311 311 313 314 315 315 314 314 312 310 308 307 306 305 305 305 306 306 307 307 307 307 307 308 308 309 309 309 309 309 310 310 311 311 311 311 311 311 312 312 311 310 309 308 308 307 306 305 304 304
235 236 236 234 234 237 241 246 250 254 258 263 268 273 277 281 283 285 291 296 300 302 303 305 305 305 306 309 311 312 311 310 309 307 306 307 309 311 312 313 313 312 310 309 307 305 304 303 303 303 303 304 305 305 306 306 307 307 308 308 308 309 308 308 309 309 310 311 311 311 310 310 311 311 311 311 310 310 310 310 309 308 307 305 305
236 234 233 234 237 242 247 252 256 261 266 271 276 281 284 288 290 293 296 298 299 300 301 301 301 302 305 307 308 308 307 306 305 305 305 307 309 311 311 311 309 307 306 305 303 303 302 302 302 302 303 303 304 304 304 305 306 306 307 307 307 308 308 308 309 310 310 310 309 309 309 309 310 309 309 309 309 310 310 310 309 309 308 307 306
233 231 233 238 244 250 255 259 262 267 273 278 284 288 292 296 298 298 297 296 296 296 296 296 298 301 303 305 305 305 305 304 303 304 305 307 308 308 307 306 304 303 302 302 302 303 303 303 302 302 303 303 304 304 305 305 306 306 307 307 308 308 308 309 309 309 309 308 308 308 308 308 308 308 309 309 309 309 309 309 309 309 308 307 306
237 240 245 250 255 259 263 266 271 275 281 286 291 294 297 298 297 295 294 292 292 292 293 295 298 301 303 303 304 304 303 303 303 305 306 306 306 305 304 303 303 302 303 303 303 303 303 302 302 303 303 304 304 305 305 306 306 307 307 307 307 307 307 307 307 307 307 307 307 308 308 308 309 310 310 310 309 309 308 308 308 308 308 308 307
Height
3120 3120 3120 3121 3121 3120 3118 3117 3118 3121 3125 3126 3128 3130 3132 3134 3136 3138 3140 3143 3145 3148 3151 3153 3154 3157 3160 3159 3158 3160 3164 3165 3166 3167 3168 3168 3169 3170 3171 3172 3173 3174 3174 3174 3174 3174 3174 3174 3174 3175 3174 3174 3175 3174 3174 3174 3173 3172 3171 3170 3170 3170 3170 3170 3170 3171 3172 3174 3175 3176 3176 3174 3174 3173 3172 3172 3172 3171 3171 3170 3169 3169 3169 3169 3168
3117 3118 3118 3119 3120 3119 3118 3117 3118 3121 3124 3126 3127 3129 3131 3133 3135 3137 3139 3141 3144 3147 3150 3151 3153 3155 3156 3154 3155 3158 3161 3162 3164 3165 3165 3166 3167 3168 3169 3170 3170 3171 3171 3171 3171 3171 3171 3171 3172 3172 3171 3171 3171 3171 3171 3170 3170 3169 3168 3167 3167 3167 3166 3167 3166 3166 3168 3170 3171 3172 3173 3172 3171 3171 3169 3168 3168 3168 3167 3167 3166 3165 3165 3165 3164
3115 3116 3117 3117 3118 3118 3119 3118 3119 3121 3123 3126 3128 3130 3132 3133 3133 3136 3138 3140 3143 3146 3148 3149 3150 3150 3150 3150 3153 3156 3158 3160 3161 3162 3163 3164 3165 3166 3167 3167 3168 3168 3168 3168 3168 3168 3168 3168 3169 3168 3168 3168 3168 3168 3167 3167 3167 3166 3166 3165 3164 3164 3163 3163 3163 3162 3163 3166 3167 3168 3168 3168 3167 3167 3166 3165 3164 3164 3163 3163 3162 3161 3161 3160 3160
3113 3114 3116 3116 3116 3117 3119 3119 3118 3119 3121 3124 3126 3128 3131 3132 3132 3134 3138 3140 3142 3144 3146 3147 3147 3147 3147 3149 3152 3154 3156 3157 3159 3160 3161 3161 3162 3163 3164 3164 3165 3165 3165 3165 3165 3164 3164 3165 3165 3165 3164 3165 3165 3165 3164 3164 3163 3163 3163 3163 3162 3161 3160 3160 3160 3160 3160 3162 3163 3163 3163 3163 3163 3163 3162 3161 3160 3160 3159 3159 3158 3158 3157 3157 3156
3110 3112 3114 3115 3115 3117 3118 3118 3118 3119 3119 3121 3124 3126 3128 3130 3130 3133 3136 3138 3140 3142 3143 3144 3145 3146 3147 3149 3151 3153 3154 3155 3156 3157 3158 3158 3159 3160 3161 3161 3162 3162 3163 3163 3162 3161 3161 3162 3162 3161 3161 3161 3161 3161 3161 3161 3160 3160 3159 3159 3158 3157 3157 3157 3157 3157 3157 3158 3159 3160 3159 3159 3159 3159 3158 3157 3157 3156 3155 3155 3154 3154 3154 3153 3152
3108 3110 3112 3113 3114 3116 3117 3118 3118 3118 3118 3120 3123 3125 3126 3128 3129 3131 3134 3136 3138 3140 3141 3142 3144 3145 3147 3149 3150 3151 3152 3153 3154 3154 3155 3155 3156 3157 3158 3159 3159 3159 3159 3159 3159 3159 3159 3159 3159 3158 3157 3157 3157 3157 3157 3157 3157 3156 3156 3155 3155 3155 3154 3154 3154 3154 3154 3154 3155 3156 3156 3155 3154 3154 3154 3153 3152 3152 3151 3150 3150 3150 3149 3149 3148
3107 3109 3111 3112 3113 3114 3116 3116 3117 3118 3118 3120 3122 3124 3126 3128 3129 3131 3133 3135 3137 3138 3140 3141 3143 3144 3146 3147 3148 3149 3150 3150 3151 3152 3152 3153 3153 3154 3155 3156 3156 3156 3156 3156 3156 3156 3156 3155 3154 3154 3154 3153 3153 3153 3153 3153 3153 3153 3152 3152 3152 3152 3152 3151 3151 3151 3151 3151 3151 3151 3151 3150 3150 3150 3149 3148 3147 3147 3146 3145 3145 3145 3145 3143 3142
3106 3108 3109 3110 3111 3112 3113 3114 3115 3116 3117 3119 3120 3122 3124 3127 3129 3131 3133 3135 3136 3138 3139 3140 3141 3142 3144 3145 3146 3147 3147 3148 3149 3149 3150 3150 3150 3150 3150 3151 3152 3153 3153 3153 3152 3152 3152 3151 3150 3150 3150 3149 3149 3149 3150 3150 3150 3150 3150 3150 3149 3149 3149 3148 3147 3147 3147 3147 3147 3146 3146 3146 3146 3146 3145 3144 3143 3143 3141 3139 3139 3141 3140 3137 3137
3105 3106 3108 3109 3110 3111 3112 3113 3114 3115 3116 3118 3120 3122 3124 3126 3128 3130 3132 3134 3135 3137 3138 3139 3140 3140 3141 3143 3144 3144 3145 3146 3146 3147 3147 3148 3148 3147 3147 3147 3147 3147 3148 3148 3148 3148 3147 3147 3146 3146 3146 3145 3145 3146 3147 3148 3148 3148 3147 3147 3146 3146 3145 3144 3144 3143 3143 3143 3143 3142 3141 3142 3142 3141 3140 3140 3138 3137 3136 3135 3135 3135 3134 3132 3133
3104 3105 3106 3107 3109 3110 3111 3112 3113 3114 3116 3117 3119 3121 3123 3125 3127 3129 3131 3132 3134 3136 3137 3138 3138 3139 3139 3140 3141 3142 3142 3143 3144 3144 3144 3144 3144 3144 3144 3144 3144 3143 3143 3143 3143 3143 3142 3142 3142 3142 3142 3142 3143 3144 3145 3146 3146 3145 3145 3144 3143 3142 3141 3141 3140 3139 3139 3138 3138 3138 3138 3139 3138 3136 3136 3135 3133 3132 3133 3131 3130 3130 3129 3127 3129
3103 3104 3105 3106 3108 3109 3110 3111 3112 3113 3115 3117 3118 3120 3122 3124 3126 3128 3129 3131 3132 3133 3134 3135 3136 3137 3137 3137 3138 3139 3139 3140 3140 3141 3141 3141 3140 3140 3140 3140 3140 3140 3139 3139 3139 3139 3139 3139 3138 3138 3138 3140 3141 3141 3142 3142 3142 3142 3141 3140 3140 3139 3138 3137 3136 3135 3135 3135 3135 3135 3134 3134 3134 3133 3131 3131 3129 3129 3129 3128 3126 3125 3124 3122 3123
3103 3103 3104 3105 3107 3108 3109 3110 3112 3113 3114 3115 3117 3118 3120 3121 3123 3125 3126 3128 3129 3130 3131 3132 3133 3133 3134 3134 3135 3135 3135 3136 3136 3136 3137 3137 3137 3137 3137 3136 3136 3136 3136 3135 3135 3135 3136 3135 3134 3134 3135 3137 3138 3138 3137 3138 3138 3138 3137 3137 3136 3135 3134 3134 3133 3132 3132 3131 3132 3131 3130 3129 3130 3129 3128 3126 3125 3124 3124 3123 3121 3119 3118 3117 3117
3102 3102 3103 3104 3106 3107 3108 3109 3110 3111 3113 3114 3115 3116 3117 3119 3121 3122 3124 3125 3126 3127 3128 3129 3129 3129 3130 3130 3131 3131 3132 3132 3132 3132 3133 3133 3133 3133 3133 3133 3132 3132 3132 3132 3132 3132 3133 3132 3131 3131 3132 3133 3133 3133 3133 3134 3134 3134 3134 3134 3133 3132 3131 3130 3129 3128 3128 3127 3127 3127 3126 3125 3125 3125 3124 3121 3120 3119 3118 3117 3117 3114 3113 3112 3111
3101 3102 3102 3103 3104 3105 3106 3107 3108 3109 3111 3112 3113 3114 3115 3117 3118 3120 3121 3122 3123 3124 3125 3125 3125 3125 3125 3126 3127 3127 3127 3128 3128 3129 3129 3129 3129 3128 3128 3128 3127 3127 3127 3127 3128 3128 3129 3129 3128 3128 3129 3130 3129 3129 3129 3129 3130 3130 3130 3130 3129 3128 3127 3126 3124 3123 3123 3122 3122 3122 3122 3120 3120 3121 3119 3117 3115 3114 3113 3111 3111 3110 3108 3107 3106
3100 3101 3102 3102 3103 3104 3104 3105 3107 3108 3108 3109 3111 3112 3113 3114 3115 3117 3118 3119 3120 3121 3121 3121 3121 3120 3120 3120 3121 3122 3123 3123 3124 3124 3124 3124 3123 3123 3123 3123 3123 3123 3123 3123 3123 3123 3124 3124 3124 3125 3125 3125 3125 3125 3125 3125 3125 3125 3125 3125 3124 3123 3122 3121 3120 3119 3118 3118 3117 3117 3117 3116 3115 3115 3115 3113 3110 3109 3108 3106 3106 3105 3102 3101 3101
3099 3100 3101 3102 3102 3102 3103 3104 3105 3106 3106 3107 3108 3110 3110 3112 3113 3114 3115 3116 3117 3117 3117 3117 3117 3116 3115 3115 3116 3117 3118 3119 3119 3119 3119 3118 3118 3118 3118 3119 3119 3118 3118 3118 3117 3118 3118 3119 3120 3120 3120 3120 3120 3120 3120 3120 3120 3119 3119 3119 3118 3118 3116 3116 3115 3115 3114 3113 3112 3112 3112 3111 3110 3110 3109 3108 3106 3104 3103 3102 3101 3100 3096 3094 3095
3099 3099 3100 3101 3102 3102 3102 3103 3103 3104 3104 3106 3106 3107 3108 3109 3110 3111 3112 3113 3113 3114 3114 3114 3113 3113 3113 3112 3113 3114 3114 3114 3114 3114 3114 3114 3114 3115 3115 3115 3115 3114 3113 3113 3112 3112 3113 3114 3114 3114 3115 3114 3114 3115 3115 3115 3115 3114 3114 3114 3113 3113 3112 3111 3110 3109 3109 3108 3108 3107 3106 3106 3105 3104 3104 3103 3101 3099 3097 3096 3096 3094 3091 3088 3088
3097 3098 3100 3100 3101 3101 3102 3102 3102 3103 3103 3104 3105 3105 3106 3107 3108 3109 3110 3110 3111 3111 3111 3111 3111 3111 3110 3110 3110 3110 3110 3110 3110 3109 3110 3110 3110 3111 3111 3111 3110 3110 3109 3109 3109 3108 3109 3110 3110 3110 3110 3110 3110 3110 3110 3110 3110 3109 3109 3109 3109 3108 3107 3107 3106 3105 3104 3103 3102 3101 3101 3100 3100 3099 3098 3097 3095 3093 3091 3090 3089 3088 3086 3083 3081
3096 3097 3098 3099 3100 3100 3101 3101 3101 3101 3102 3103 3103 3104 3104 3105 3105 3106 3107 3107 3108 3108 3108 3108 3108 3108 3108 3107 3107 3107 3107 3107 3106 3106 3106 3106 3107 3107 3106 3106 3106 3106 3105 3105 3105 3105 3105 3106 3106 3106 3106 3106 3106 3106 3105 3105 3105 3105 3104 3104 3104 3104 3103 3103 3102 3102 3101 3099 3098 3098 3097 3096 3095 3095 3094 3093 3091 3089 3087 3085 3084 3082 3081 3078 3076
3095 3096 3096 3097 3098 3098 3099 3100 3100 3100 3101 3101 3101 3102 3102 3103 3103 3104 3104 3105 3105 3105 3105 3105 3105 3105 3105 3105 3104 3104 3104 3104 3104 3104 3104 3104 3104 3104 3103 3103 3103 3103 3102 3102 3102 3102 3101 3102 3102 3102 3102 3102 3102 3102 3101 3101 3101 3100 3100 3100 3100 3100 3099 3099 3098 3098 3098 3097 3096 3095 3094 3093 3092 3091 3090 3089 3088 3086 3084 3082 3079 3077 3075 3074 3072
3094 3094 3095 3095 3096 3097 3097 3098 3098 3099 3099 3100 3100 3101 3101 3102 3102 3102 3102 3103 3103 3103 3103 3103 3103 3103 3103 3102 3102 3102 3102 3102 3102 3102 3102 3102 3102 3102 3102 3101 3101 3101 3100 3100 3099 3099 3099 3098 3099 3099 3099 3098 3098 3098 3097 3097 3097 3097 3096 3096 3096 3096 3096 3095 3094 3094 3093 3093 3092 3091 3090 3089 3088 3087 3086 3085 3084 3082 3080 3078 3075 3073 3070 3068 3066
3093 3093 3093 3094 3094 3095 3096 3097 3097 3098 3098 3099 3099 3100 3100 3100 3101 3101 3101 3101 3101 3101 3102 3102 3102 3101 3101 3101 3101 3101 3101 3101 3101 3101 3101 3101 3101 3101 3101 3100 3100 3099 3099 3098 3098 3097 3097 3096 3096 3096 3096 3096 3096 3095 3095 3094 3094 3093 3093 3092 3092 3091 3091 3090 3090 3089 3088 3088 3087 3086 3085 3084 3083 3082 3081 3080 3078 3077 3076 3074 3072 3069 3066 3063 3061
3092 3093 3093 3093 3094 3094 3095 3096 3096 3097 3098 3098 3099 3099 3100 3100 3100 3100 3101 3101 3101 3101 3101 3101 3101 3101 3101 3100 3100 3100 3100 3100 3100 3100 3100 3100 3100 3100 3100 3099 3099 3098 3098 3097 3097 3096 3096 3095 3095 3095 3094 3094 3094 3093 3092 3091 3091 3090 3089 3089 3088 3087 3087 3086 3085 3085 3084 3083 3082 3081 3080 3079 3078 3076 3075 3074 3073 3072 3070 3069 3067 3065 3062 3060 3058
3091 3092 3092 3093 3093 3094 3094 3095 3096 3096 3097 3098 3098 3099 3099 3099 3100 3100 3100 3100 3100 3100 3100 3101 3101 3101 3100 3100 3100 3100 3100 3100 3099 3099 3099 3099 3099 3099 3098 3098 3098 3097 3097 3096 3096 3095 3095 3094 3094 3093 3093 3092 3092 3091 3090 3089 3088 3087 3086 3086 3085 3084 3083 3083 3082 3081 3080 3079 3078 3077 3075 3074 3073 3072 3070 3069 3067 3066 3065 3064 3062 3060 3058 3056 3055
3091 3091 3092 3093 3093 3094 3094 3095 3095 3096 3096 3097 3097 3098 3098 3098 3099 3099 3099 3099 3099 3100 3100 3100 3100 3100 3100 3100 3100 3100 3099 3099 3099 3099 3098 3098 3098 3097 3097 3097 3096 3096 3095 3095 3094 3094 3093 3093 3092 3092 3091 3091 3090 3089 3088 3087 3086 3085 3084 3083 3082 3081 3080 3079 3078 3077 3076 3075 3074 3073 3071 3070 3069 3067 3066 3065 3063 3061 3060 3059 3058 3056 3054 3052 3050
3090 3091 3092 3092 3093 3093 3094 3095 3095 3095 3096 3096 3097 3097 3097 3097 3097 3098 3098 3098 3098 3098 3099 3099 3099 3099 3099 3099 3099 3099 3098 3098 3098 3098 3097 3097 3097 3096 3096 3096 3095 3095 3094 3093 3093 3092 3092 3091 3090 3090 3089 3088 3087 3086 3085 3084 3083 3082 3081 3080 3079 3078 3076 3075 3074 3073 3072 3071 3070 3069 3068 3066 3065 3063 3061 3060 3058 3056 3055 3053 3052 3051 3049 3047 3045
3090 3090 3091 3092 3093 3093 3094 3095 3095 3096 3096 3097 3097 3097 3097 3097 3097 3097 3097 3097 3097 3097 3097 3097 3098 3098 3098 3098 3097 3097 3096 3096 3096 3096 3095 3095 3095 3094 3094 3094 3093 3093 3092 3092 3091 3091 3090 3089 3089 3088 3087 3087 3086 3084 3083 3082 3081 3079 3078 3077 3076 3075 3073 3072 3071 3069 3068 3067 3066 3064 3063 3061 3060 3058 3057 3055 3053 3051 3049 3047 3045 3044 3043 3041 3039
3089 3090 3091 3091 3092 3093 3094 3095 3095 3096 3096 3097 3097 3097 3097 3097 3097 3097 3097 3097 3097 3097 3096 3096 3096 3096 3096 3096 3095 3095 3094 3094 3094 3094 3093 3093 3092 3092 3092 3092 3091 3091 3090 3090 3089 3089 3088 3087 3087 3086 3085 3084 3083 3082 3081 3080 3078 3077 3076 3074 3073 3071 3070 3068 3067 3065 3063 3062 3060 3059 3058 3056 3055 3053 3052 3050 3048 3046 3043 3041 3039 3038 3036 3034 3032
3087 3088 3090 3091 3091 3092 3093 3094 3094 3095 3095 3096 3096 3097 3097 3097 3097 3097 3097 3097 3097 3096 3096 3096 3096 3095 3095 3095 3095 3094 3094 3093 3093 3093 3093 3092 3092 3091 3091 3091 3090 3090 3089 3089 3088 3087 3087 3086 3085 3084 3083 3082 3081 3080 3079 3077 3076 3074 3073 3071 3070 3068 3066 3065 3063 3061 3060 3058 3056 3054 3053 3051 3050 3048 3046 3045 3043 3041 3038 3036 3034 3032 3030 3028 3026
3086 3087 3088 3089 3090 3091 3092 3092 3093 3094 3094 3094 3095 3095 3095 3096 3096 3096 3096 3096 3096 3095 3095 3095 3095 3095 3095 3094 3094 3094 3094 3093 3093 3093 3093 3092 3092 3091 3091 3090 3089 3089 3088 3087 3087 3086 3085 3084 3083 3082 3081 3080 3079 3078 3077 3075 3074 3072 3070 3068 3067 3065 3063 3062 3060 3058 3056 3054 3052 3050 3048 3046 3045 3043 3041 3039 3038 3036 3033 3031 3028 3026 3024 3021 3019
3084 3085 3086 3087 3088 3089 3090 3090 3091 3092 3092 3092 3093 3093 3093 3094 3094 3094 3094 3094 3094 3094 3094 3094 3094 3094 3094 3093 3093 3093 3093 3093 3092 3092 3091 3091 3091 3090 3089 3089 3088 3087 3086 3085 3084 3083 3082 3081 3080 3079 3078 3077 3076 3075 3074 3072 3071 3069 3067 3066 3064 3062 3060 3059 3056 3054 3053 3050 3048 3046 3043 3041 3040 3038 3036 3034 3032 3030 3028 3026 3023 3021 3018 3016 3013
3083 3084 3085 3085 3086 3087 3088 3089 3089 3090 3090 3090 3091 3091 3091 3092 3092 3092 3093 3093 3093 3093 3093 3093 3093 3093 3093 3092 3092 3092 3092 3091 3091 3090 3089 3089 3088 3087 3087 3086 3085 3084 3083 3082 3081 3080 3079 3078 3077 3075 3074 3073 3072 3071 3070 3069 3068 3066 3065 3063 3061 3059 3057 3055 3053 3051 3048 3046 3044 3042 3040 3038 3036 3034 3032 3029 3027 3025 3023 3021 3018 3016 3014 3011 3009
3081 3082 3083 3084 3084 3085 3086 3087 3087 3088 3088 3089 3089 3089 3089 3090 3090 3091 3091 3091 3091 3092 3092 3092 3092 3092 3091 3091 3091 3091 3090 3090 3089 3088 3088 3087 3086 3085 3084 3083 3082 3081 3080 3079 3078 3077 3076 3075 3073 3072 3071 3070 3068 3067 3066 3065 3063 3062 3060 3059 3057 3055 3053 3051 3049 3047 3044 3042 3040 3038 3036 3034 3032 3030 3028 3025 3022 3020 3017 3015 3013 3010 3008 3006 3003
3079 3080 3082 3082 3083 3084 3084 3085 3086 3086 3086 3087 3087 3088 3088 3088 3089 3089 3089 3090 3090 3090 3091 3091 3091 3090 3090 3090 3089 3089 3088 3088 3087 3086 3086 3085 3084 3083 3082 3081 3080 3078 3077 3077 3076 3075 3073 3071 3070 3069 3067 3066 3065 3063 3062 3060 3059 3058 3056 3054 3053 3051 3049 3047 3045 3043 3041 3039 3036 3034 3032 3030 3028 3025 3023 3021 3018 3016 3013 3010 3008 3005 3002 3000 2997
3077 3078 3079 3080 3081 3082 3082 3083 3084 3084 3085 3085 3086 3086 3087 3087 3087 3088 3088 3088 3089 3089 3089 3089 3089 3089 3089 3088 3088 3087 3087 3086 3085 3084 3084 3083 3082 3082 3081 3079 3078 3076 3074 3073 3072 3071 3070 3068 3067 3065 3064 3062 3061 3059 3058 3056 3055 3054 3052 3051 3049 3047 3045 3043 3041 3039 3037 3035 3033 3031 3029 3026 3024 3021 3019 3016 3014 3011 3008 3006 3003 3000 2998 2995 2991
3075 3076 3077 3078 3078 3079 3080 3081 3082 3082 3083 3083 3084 3085 3085 3085 3086 3086 3086 3087 3087 3087 3088 3088 3088 3087 3087 3086 3086 3085 3085 3084 3084 3083 3082 3081 3080 3079 3077 3076 3075 3074 3072 3070 3069 3068 3067 3065 3064 3063 3061 3059 3057 3056 3054 3053 3051 3050 3048 3047 3045 3043 3041 3039 3037 3036 3034 3032 3029 3027 3025 3022 3020 3017 3014 3012 3009 3006 3003 3000 2997 2995 2992 2989 2986
3074 3075 3075 3076 3076 3077 3078 3079 3080 3080 3081 3081 3082 3082 3083 3083 3084 3084 3085 3085 3085 3086 3086 3086 3086 3085 3085 3085 3084 3084 3083 3082 3082 3080 3079 3078 3077 3076 3074 3073 3072 3071 3070 3068 3067 3065 3064 3062 3061 3060 3058 3056 3054 3052 3051 3049 3048 3046 3045 3043 3041 3040 3038 3035 3033 3031 3029 3027 3025 3023 3021 3018 3016 3013 3010 3007 3004 3001 2998 2995 2992 2990 2987 2984 2981
3073 3073 3074 3074 3075 3075 3076 3077 3078 3078 3079 3079 3080 3081 3081 3082 3082 3082 3083 3083 3084 3084 3084 3083 3083 3083 3082 3082 3082 3081 3081 3080 3079 3078 3076 3075 3074 3073 3072 3071 3069 3068 3067 3065 3064 3062 3061 3060 3058 3057 3055 3053 3051 3049 3048 3046 3045 3043 3042 3040 3038 3036 3034 3031 3029 3027 3025 3023 3021 3019 3017 3014 3012 3009 3006 3002 2999 2996 2993 2991 2988 2984 2982 2979 2977
3072 3072 3072 3073 3073 3074 3074 3075 3076 3077 3077 3078 3078 3079 3079 3080 3080 3081 3081 3082 3082 3082 3081 3081 3081 3080 3080 3079 3079 3078 3078 3077 3076 3075 3074 3073 3071 3070 3069 3067 3066 3064 3063 3062 3060 3059 3058 3057 3055 3054 3052 3050 3048 3046 3044 3043 3041 3039 3038 3036 3035 3033 3030 3028 3025 3023 3021 3019 3017 3014 3012 3009 3007 3004 3001 2998 2994 2990 2987 2985 2982 2979 2975 2973 2971
3070 3071 3071 3071 3071 3072 3072 3074 3075 3075 3076 3076 3077 3077 3078 3078 3079 3079 3080 3080 3080 3079 3079 3079 3078 3078 3077 3077 3076 3076 3075 3074 3073 3072 3071 3070 3069 3067 3065 3064 3063 3061 3060 3058 3057 3056 3054 3053 3052 3050 3048 3046 3044 3042 3041 3039 3037 3035 3033 3032 3030 3028 3026 3023 3021 3018 3016 3014 3012 3009 3007 3004 3001 2999 2996 2993 2989 2986 2982 2979 2977 2973 2970 2967 2964
3069 3069 3069 3070 3070 3070 3071 3072 3073 3074 3074 3075 3075 3076 3076 3077 3077 3077 3077 3077 3077 3076 3076 3076 3075 3075 3074 3074 3073 3072 3071 3070 3069 3068 3067 3066 3065 3063 3062 3060 3059 3058 3056 3055 3053 3052 3050 3049 3047 3046 3044 3042 3040 3038 3036 3034 3032 3030 3028 3026 3024 3022 3020 3018 3016 3013 3011 3009 3006 3004 3002 2999 2996 2994 2991 2988 2984 2981 2978 2975 2971 2968 2965 2962 2959
3067 3068 3068 3068 3068 3069 3069 3070 3071 3072 3073 3073 3074 3074 3074 3074 3074 3074 3074 3074 3074 3074 3073 3073 3072 3072 3071 3070 3069 3068 3067 3066 3065 3064 3063 3062 3061 3060 3058 3057 3055 3053 3052 3050 3049 3047 3046 3044 3043 3041 3039 3037 3035 3033 3031 3029 3027 3025 3023 3021 3019 3016 3014 3012 3010 3007 3006 3004 3001 2999 2996 2994 2991 2988 2985 2982 2979 2976 2973 2970 2967 2963 2960 2957 2955
3066 3066 3066 3066 3066 3067 3068 3068 3070 3071 3071 3072 3072 3072 3072 3072 3072 3072 3072 3071 3071 3071 3070 3070 3069 3068 3067 3066 3065 3064 3063 3063 3062 3061 3060 3058 3057 3055 3054 3053 3051 3049 3048 3046 3045 3043 3042 3040 3038 3036 3034 3032 3030 3028 3026 3025 3023 3021 3019 3016 3014 3012 3009 3006 3004 3002 2999 2997 2995 2993 2990 2988 2985 2982 2979 2976 2973 2970 2967 2964 2961 2958 2955 2952 2950
3063 3064 3064 3064 3065 3066 3066 3067 3068 3069 3069 3070 3070 3069 3069 3069 3069 3069 3069 3069 3068 3068 3067 3066 3065 3064 3063 3062 3061 3061 3060 3059 3058 3057 3056 3054 3053 3051 3050 3048 3047 3045 3043 3042 3040 3039 3037 3035 3033 3031 3030 3028 3026 3024 3022 3020 3018 3016 3014 3011 3009 3006 3004 3001 2998 2996 2993 2990 2988 2986 2983 2981 2978 2976 2973 2970 2967 2964 2961 2958 2955 2952 2950 2947 2945
3061 3062 3062 3062 3063 3064 3064 3065 3066 3067 3067 3067 3067 3067 3067 3067 3066 3066 3066 3065 3064 3064 3063 3062 3061 3061 3060 3059 3058 3057 3056 3055 3054 3053 3051 3050 3048 3047 3045 3044 3042 3041 3039 3038 3036 3034 3032 3030 3029 3027 3025 3023 3021 3019 3017 3015 3013 3011 3009 3006 3003 3001 2998 2995 2992 2990 2987 2984 2981 2979 2976 2973 2971 2968 2966 2963 2960 2957 2954 2952 2949 2946 2943 2941 2939
3059 3059 3060 3060 3061 3062 3062 3063 3064 3064 3064 3064 3064 3064 3064 3064 3063 3062 3062 3061 3060 3060 3059 3058 3057 3057 3056 3055 3054 3053 3052 3051 3050 3048 3047 3046 3044 3043 3041 3039 3038 3036 3035 3034 3032 3030 3028 3026 3024 3022 3020 3018 3016 3015 3013 3011 3009 3006 3004 3001 2999 2996 2993 2990 2987 2984 2981 2978 2975 2972 2969 2967 2964 2962 2959 2956 2954 2951 2948 2945 2943 2940 2937 2934 2932
3057 3057 3058 3058 3059 3059 3060 3061 3061 3061 3062 3062 3061 3061 3061 3060 3059 3058 3057 3056 3056 3056 3055 3054 3054 3053 3052 3051 3050 3049 3048 3047 3046 3045 3043 3042 3040 3039 3037 3035 3034 3032 3031 3029 3028 3026 3024 3022 3020 3018 3016 3014 3012 3010 3008 3006 3003 3001 2999 2996 2993 2990 2988 2985 2982 2979 2976 2973 2970 2967 2963 2961 2958 2956 2953 2950 2947 2944 2942 2939 2936 2934 2931 2928 2926
3054 3055 3055 3056 3056 3057 3058 3058 3058 3059 3059 3058 3058 3057 3056 3055 3054 3054 3053 3053 3053 3052 3051 3051 3050 3049 3049 3048 3046 3045 3044 3043 3042 3041 3040 3038 3036 3035 3033 3031 3030 3028 3027 3025 3024 3022 3020 3018 3016 3014 3011 3009 3007 3005 3003 3000 2998 2996 2993 2991 2988 2985 2983 2980 2977 2974 2971 2968 2964 2961 2958 2955 2952 2950 2947 2944 2941 2938 2935 2933 2930 2928 2925 2923 2921
3051 3052 3052 3053 3053 3054 3055 3055 3055 3055 3055 3054 3053 3053 3052 3051 3051 3051 3050 3050 3049 3049 3048 3047 3047 3046 3045 3044 3043 3041 3040 3039 3038 3037 3035 3033 3032 3030 3029 3027 3025 3023 3022 3021 3019 3017 3015 3013 3011 3009 3007 3005 3002 3000 2998 2995 2993 2991 2988 2985 2983 2980 2977 2974 2971 2968 2965 2962 2960 2956 2953 2950 2948 2945 2942 2939 2936 2933 2930 2927 2925 2922 2919 2917 2915
3048 3049 3049 3050 3051 3051 3052 3052 3052 3051 3051 3050 3049 3049 3048 3048 3048 3048 3047 3046 3046 3045 3044 3044 3043 3042 3041 3040 3039 3037 3036 3035 3034 3033 3031 3029 3027 3026 3024 3022 3021 3019 3018 3016 3014 3012 3010 3008 3006 3004 3002 3000 2997 2995 2993 2990 2988 2985 2983 2980 2977 2974 2971 2968 2966 2963 2960 2957 2954 2951 2948 2945 2943 2940 2937 2934 2931 2928 2925 2922 2920 2917 2914 2911 2909
3046 3046 3047 3047 3048 3048 3049 3048 3048 3047 3047 3046 3046 3045 3045 3045 3045 3044 3043 3043 3042 3041 3040 3040 3039 3038 3037 3036 3035 3034 3033 3031 3029 3028 3026 3024 3022 3021 3019 3017 3016 3014 3013 3011 3009 3008 3006 3003 3001 2999 2997 2995 2992 2990 2987 2985 2982 2979 2977 2974 2971 2968 2966 2963 2960 2958 2955 2952 2949 2946 2943 2940 2937 2934 2931 2928 2925 2922 2920 2917 2915 2912 2909 2906 2903